Weather in Belyashi

Russia / Altai Republic     49°42′22″N   87°25′30″E
temp.,
°C
wind,
m/s
gust,
m/s
humid.,
%
clouds,
%
prec.,
mm/h
press.,
hPa
HPBL,
m
4 march, thu
thu401:00−25sse1110031 0.1 103220
04:00−26ese2295100 0.1 103520
07:00−28e2292100 0.1 103719
10:00−23ese228342 0.0 1036111
13:00−19sse124721 0.0 1031331
16:00−15sse12500 0.0 1027385
19:00−20e23640 0.0 103020
22:00−22e22570 0.0 103220
5 march, fri
fri501:00−24e22652 0.0 103220
04:00−25e225664 0.0 103120
07:00−22ese225481 0.0 102920
10:00−16e335999 0.0 1026147
13:00−13sw129099 0.6 1022251
16:00−9sw4989100 0.9 1023904
19:00−14ssw458586 1.4 103036
22:00−20sse229817 0.1 103620
6 march, sat
sat601:00−22se229517 0.1 103920
04:00−23e229517 0.0 103920
07:00−24e229413 0.0 103920
10:00−18e22782 0.0 1035155
13:00−14sse12351 0.0 1029343
16:00−10s124328 0.0 1024445
19:00−16se126335 0.0 102721
22:00−19e225644 0.0 102820
7 march, sun
sun701:00−21e225024 0.0 102920
04:00−22e22360 0.0 102820
07:00−22e22310 0.0 102920
10:00−15ese12435 0.0 102688
13:00−11ssw12322 0.0 1021277
16:00−8sw12576 0.0 1020282
19:00−14se117544 0.0 102321
22:00−15e236796 0.0 102520
8 march, mon
mon801:00−16e226698 0.0 102620
04:00−16e2258100 0.0 102520
07:00−16ese225399 0.0 102520
10:00−11ese125658 0.0 102399
13:00−7sse124730 0.0 1018333
16:00−4sw236136 0.0 1016366
19:00−9s336860 0.0 101923
22:00−12sse2269100 0.0 102221